TimePDT,TemperatureF,Dew PointF,Humidity,Sea Level PressureIn,VisibilityMPH,Wind Direction,Wind SpeedMPH,Gust SpeedMPH,PrecipitationIn,Events,Conditions,WindDirDegrees,DateUTC
12:56 AM,54.0,51.1,90,30.13,10.0,SSE,4.6,-,N/A,,Overcast,150,2011-10-21 07:56:00
1:56 AM,54.0,51.1,90,30.14,10.0,SSE,3.5,-,N/A,,Overcast,160,2011-10-21 08:56:00
2:33 AM,55.4,51.8,88,30.15,10.0,South,5.8,-,N/A,,Overcast,170,2011-10-21 09:33:00
2:56 AM,55.0,51.1,86,30.16,10.0,South,5.8,-,N/A,,Overcast,190,2011-10-21 09:56:00
3:20 AM,55.4,51.8,88,30.15,10.0,South,6.9,-,N/A,,Overcast,190,2011-10-21 10:20:00
3:56 AM,55.0,51.1,86,30.16,10.0,South,5.8,-,N/A,,Overcast,180,2011-10-21 10:56:00
4:56 AM,55.0,50.0,83,30.17,10.0,South,8.1,-,N/A,,Overcast,170,2011-10-21 11:56:00
5:56 AM,55.0,48.9,80,30.18,10.0,South,6.9,-,N/A,,Overcast,180,2011-10-21 12:56:00
6:56 AM,55.0,48.9,80,30.19,10.0,SSW,6.9,-,N/A,,Overcast,200,2011-10-21 13:56:00
7:56 AM,55.0,48.0,77,30.20,10.0,South,8.1,-,N/A,,Overcast,190,2011-10-21 14:56:00
8:56 AM,55.9,48.0,75,30.23,10.0,South,9.2,-,N/A,,Mostly Cloudy,180,2011-10-21 15:56:00
9:56 AM,57.9,48.0,70,30.24,10.0,SSE,10.4,-,N/A,,Mostly Cloudy,160,2011-10-21 16:56:00
10:56 AM,60.1,48.0,64,30.25,10.0,South,12.7,-,N/A,,Mostly Cloudy,180,2011-10-21 17:56:00
11:56 AM,61.0,46.9,60,30.25,10.0,South,17.3,21.9,N/A,,Overcast,190,2011-10-21 18:56:00
12:56 PM,62.1,48.0,60,30.27,10.0,South,12.7,-,N/A,,Overcast,190,2011-10-21 19:56:00
1:56 PM,63.0,50.0,63,30.25,10.0,South,13.8,-,N/A,,Scattered Clouds,170,2011-10-21 20:56:00
2:56 PM,64.0,51.1,63,30.26,10.0,South,11.5,-,N/A,,Overcast,180,2011-10-21 21:56:00
3:56 PM,64.0,51.1,63,30.26,10.0,South,12.7,-,N/A,,Overcast,180,2011-10-21 22:56:00
4:56 PM,64.0,52.0,65,30.26,10.0,South,8.1,-,N/A,,Overcast,190,2011-10-21 23:56:00
6:56 PM,62.1,52.0,70,30.27,10.0,South,4.6,-,N/A,,Overcast,190,2011-10-22 01:56:00
7:18 PM,62.6,51.8,68,30.28,10.0,South,4.6,-,N/A,,Overcast,190,2011-10-22 02:18:00
7:56 PM,61.0,53.1,75,30.29,10.0,South,8.1,-,N/A,,Overcast,170,2011-10-22 02:56:00
8:56 PM,61.0,53.1,75,30.29,10.0,SW,6.9,-,N/A,,Overcast,220,2011-10-22 03:56:00
9:56 PM,60.1,53.1,78,30.29,10.0,South,5.8,-,N/A,,Overcast,180,2011-10-22 04:56:00
10:56 PM,60.1,53.1,78,30.29,10.0,South,3.5,-,N/A,,Overcast,190,2011-10-22 05:56:00
11:56 PM,59.0,53.1,81,30.29,10.0,South,3.5,-,N/A,,Overcast,170,2011-10-22 06:56:00